Pompano Beach, FL

3:30 AM EDT on April 28, 2017 (GMT -0400)
Pompano Beach

Weather History for KPMP - October, 2012

Change the Weather History Date:

Sunday, October 7, 2012

  Actual Average Record
Temperature  
Mean Temperature 76 °F -  
Max Temperature 82 °F 88 °F 93 °F (1986)
Min Temperature 71 °F 71 °F 65 °F (1976)
Cooling Degree Days 12    
Growing Degree Days 26 (Base 50)    
Moisture  
Dew Point 74 °F    
Average Humidity 92    
Maximum Humidity 100    
Minimum Humidity 74    
Precipitation  
Precipitation 0.64 in - - ()
Sea Level Pressure  
Sea Level Pressure 29.94 in    
Wind  
Wind Speed 5 mph (NE)    
Max Wind Speed 12 mph    
Max Gust Speed 30 mph    
Visibility 9 miles    
Events Rain , Thunderstorm    
Averages and records for this station are not official NWS values.
T = Trace of Precipitation, MM = Missing Value Source: NWS Daily Summary

Daily Weather History Graph

Daily Weather History Graph

Search for Another Location

Airport or City:

Trip Planner

Search our weather history database for the weather conditions in past years. The results will help you decide how hot, cold, wet, or windy it might be!

Date:

Astronomy

Oct. 07, 2012 Rise Set
Actual Time 7:15 AM EDT 6:59 PM EDT
Civil Twilight 6:52 AM EDT 7:23 PM EDT
Nautical Twilight 6:25 AM EDT 7:49 PM EDT
Astronomical Twilight 5:59 AM EDT 8:16 PM EDT
Moon No Moon Rise 1:29 PM EDT (10/7)
Length of Visible Light 12h 30m
Length of Day
11h 44m
Waning Gibbous, 56% of the Moon is Illuminated
Oct 7
Waning Gibbous
Oct 8
Last Quarter
Oct 15
New
Oct 21
First Quarter
Oct 29
Full

Hourly Weather History & Observations

Time (EDT) Temp. Heat Index Dew Point Humidity Pressure Visibility Wind Dir Wind Speed Gust Speed Precip Events Conditions
12:20 AM 71.6 °F - 71.6 °F 100% 29.96 in 1.8 mi Calm Calm - 0.29 in Rain , Thunderstorm Heavy Thunderstorms and Rain
12:30 AM 73.4 °F - 71.6 °F 94% 29.95 in 3.0 mi Variable 3.5 mph - 0.36 in Rain Rain
12:53 AM 72.0 °F - 72.0 °F 100% 29.96 in 4.0 mi North 9.2 mph - 0.50 in Rain Rain
1:03 AM 73.4 °F - 73.4 °F 100% 29.97 in 8.0 mi ENE 4.6 mph - 0.01 in Rain , Thunderstorm Light Rain
1:25 AM 73.4 °F - 73.4 °F 100% 29.95 in 5.0 mi North 4.6 mph - 0.09 in Rain Rain
1:53 AM 73.0 °F - 73.0 °F 100% 29.93 in 10.0 mi ENE 4.6 mph - 0.13 in Rain Light Rain
2:53 AM 75.0 °F - 73.9 °F 96% 29.90 in 10.0 mi SE 5.8 mph - 0.00 in   Scattered Clouds
3:53 AM 73.9 °F - 73.0 °F 97% 29.88 in 10.0 mi NNW 6.9 mph - N/A   Clear
4:53 AM 73.0 °F - 73.0 °F 100% 29.88 in 10.0 mi Calm Calm - N/A   Clear
5:53 AM 73.9 °F - 73.9 °F 100% 29.90 in 10.0 mi North 6.9 mph - N/A   Clear
6:53 AM 73.9 °F - 73.9 °F 100% 29.91 in 10.0 mi North 5.8 mph - N/A   Clear
7:53 AM 73.9 °F - 73.9 °F 100% 29.93 in 10.0 mi North 5.8 mph - N/A   Scattered Clouds
8:53 AM 75.0 °F - 75.0 °F 100% 29.94 in 10.0 mi North 5.8 mph - N/A   Scattered Clouds
9:53 AM 77.0 °F - 75.9 °F 96% 29.97 in 10.0 mi ENE 10.4 mph 16.1 mph N/A   Mostly Cloudy
10:53 AM 80.1 °F 85.4 °F 75.9 °F 87% 29.98 in 10.0 mi East 9.2 mph - N/A   Mostly Cloudy
11:53 AM 82.9 °F 89.4 °F 73.9 °F 74% 29.97 in 10.0 mi ENE 10.4 mph - N/A   Scattered Clouds
12:53 PM 80.1 °F 84.5 °F 73.9 °F 81% 29.97 in 10.0 mi NE 11.5 mph - N/A   Mostly Cloudy
1:53 PM 80.1 °F 85.4 °F 75.9 °F 87% 29.96 in 10.0 mi ENE 6.9 mph - N/A   Mostly Cloudy
2:53 PM 80.1 °F 85.4 °F 75.9 °F 87% 29.93 in 10.0 mi NE 5.8 mph - 0.00 in   Overcast
3:53 PM 80.1 °F 84.2 °F 73.0 °F 79% 29.92 in 10.0 mi ENE 6.9 mph - N/A   Clear
4:53 PM 80.1 °F 85.1 °F 75.0 °F 85% 29.93 in 10.0 mi ENE 6.9 mph - N/A   Scattered Clouds
5:53 PM 78.1 °F - 73.0 °F 84% 29.93 in 10.0 mi ENE 5.8 mph - 0.00 in Rain Light Rain
6:53 PM 75.9 °F - 72.0 °F 87% 29.94 in 10.0 mi ENE 10.4 mph 16.1 mph 0.01 in Rain Light Rain
7:53 PM 77.0 °F - 71.1 °F 82% 29.96 in 10.0 mi ENE 5.8 mph - 0.00 in   Partly Cloudy
8:53 PM 78.1 °F - 75.9 °F 93% 29.96 in 10.0 mi Variable 4.6 mph 29.9 mph N/A   Clear
9:53 PM 78.1 °F - 77.0 °F 96% 29.98 in 10.0 mi ENE 3.5 mph - N/A   Clear
10:53 PM 79.0 °F - 75.0 °F 88% 29.98 in 10.0 mi East 6.9 mph - N/A   Clear
11:53 PM 79.0 °F - 75.0 °F 88% 29.96 in 10.0 mi East 5.8 mph - N/A   Clear